Regional Weather Roundup
Issued by NWS Lake Charles, LA

Current Version | Previous Version | Text Only | Print | Product List | Glossary On
Versions: 1 2 3 4 5 6 7 8 9 10 11 12 13 14 15 16 17 18 19 20 21 22 23 24 25 26 27 28 29 30 31 32 33 34 35 36 37 38 39 40 41 42 43 44 45 46 47 48 49 50
000
ASUS44 KLCH 230810
RWRLCH
REGIONAL WEATHER ROUNDUP
NATIONAL WEATHER SERVICE LAKE CHARLES LA
200 AM CST TUE JAN 23 2018

Note: "fair" indicates few or no clouds below 12,000 feet with no
significant weather and/or obstructions to visibility.


ACROSS SOUTHEAST TEXAS

CITY           SKY/WX    TMP DP  RH WIND       PRES   REMARKS
BEAUMONT       FAIR      42  34  73 W3        30.15R
BEAUMONT CITY  FAIR      47  34  62 NW5       30.16S
ORANGE         FAIR      42  36  79 NW3       30.17R
JASPER         FAIR      38  36  92 CALM      30.16S
$$

ACROSS CENTRAL LOUISIANA

CITY           SKY/WX    TMP DP  RH WIND       PRES   REMARKS
LEESVILLE      FAIR      37  34  87 CALM      30.11F
FULLERTON      FAIR      42  35  76 CALM      30.09
ALEXANDRIA INT FAIR      41  30  65 CALM      30.10S
ESLER FIELD    FAIR      34  32  92 W3        30.11R
DERIDDER       FAIR      37  33  84 CALM      30.15S
OAKDALE        FAIR      47  28  47 NW3       30.13S
OPELOUSAS      FAIR      46  32  59 W3        30.13R
$$

ACROSS SOUTHWEST AND SOUTH CENTRAL LOUISIANA

CITY           SKY/WX    TMP DP  RH WIND       PRES   REMARKS
SULPHUR        FAIR      46  33  61 CALM      30.15S
LAKE CHARLES   FAIR      44  35  70 NW3       30.14S
CHENNAULT INT  FAIR      45  32  60 NW5       30.14S
CAMERON PHI    SUNNY     50  36  57 NW6       30.15R
DEQUINCY       FAIR      37  33  84 CALM      30.15R
JENNINGS       FAIR      44  35  70 W3        30.14S
LAFAYETTE      FAIR      49  33  54 NW6       30.12F
NEW IBERIA     FAIR      44  35  70 CALM      30.13S
ABBEVILLE      FAIR      43  35  75 CALM      30.13S
PATTERSON      FAIR      51  32  48 NW5       30.13R
SALT POINT     NOT AVBL
$$

SELECTED SITES ACROSS THE REGION

CITY           SKY/WX    TMP DP  RH WIND       PRES   REMARKS
HOUSTON BUSH   CLOUDY    42  35  76 W3        30.17R
HOUSTON HOBBY  FAIR      44  35  70 W3        30.16F
GALVESTON      FAIR      54  36  50 NW6       30.17S
COLLEGE STAT   CLEAR     36  28  73 CALM      30.17S
CONROE         CLOUDY    33  31  92 CALM      30.17R
HUNTSVILLE     CLEAR     39  27  62 CALM      30.16R
LUFKIN         CLEAR     34  31  88 CALM      30.13S
SHREVEPORT     CLEAR     46  27  47 W10       30.07S
MONROE         FAIR      41  28  60 SW7       30.06S
NATCHEZ MS     FAIR      46  29  51 NW6       30.10R
BATON ROUGE    FAIR      46  32  58 SW3       30.11R
N.O. INTL ARPT FAIR      54  32  43 NW12      30.09S
SLIDELL        FAIR      48  31  51 CALM      30.08S
$$

MARINE REPORTS

STATION/POSITION TIME  SKY/WX   TEMP    WIND        PRES    VSBY
                                AIR SEA DIR/SP/G
                 (UTC)          (F)     (DEG/KT/KT) (MB)    (MI)
BUOY 30 S HIGH I 0650            55 53  320/  6/  8 1021.5
WVE H/P(F/S)=  1/ 7

SEA RIM ST PARK  0800            49     290/  5/  5 1021.6S
PORT ARTHUR      0748            53 50  330/  5/  7 1021.2R
SABINE PASS N    0748            51 54  310/  1/  3 1022.6R
TEXAS POINT      NOT AVBL
CALCASIEU PASS   0748            51 50  320/  8/  8 1019.8R
LK CHARLES BEACH 0748            51 56              1020.1S
MARSH ISLAND     0700            55                   N/A
FRESH WATER LOCK 0748            46 52  260/  5/  6 1020.5R
AMERADA PASS     0748            51 50  280/  8/  9 1019.7R
$$



USA.gov is the U.S. government's official web portal to all federal, state and local government web resources and services.